Location: Arrodets-la-Barthe
(43.0306°N, 0.2829°E)
Time: 13:15:04
(UTC+00:00)

Cosmos 2346 Rocket - Pass Details

Date: 24 October 2021
Orbit: 937 x 980 km, 82.9° (Epoch: 08 December)

Event Time Altitude Azimuth Distance (km) Brightness Sun altitude
Rises 19:29:48 0° 353° (N) 3,683 7.7 -27.6°
Reaches altitude 10° 19:32:19 10° 354° (N) 2,735 7.0 -28.1°
Enters shadow 19:38:11 76° 33° (NNE) 1,012 4.4 -29.1°
